STARLINK-31398, 59415

Orbit data source: Space-Track

STARLINK-31398, 59415 is a payload satellite owned by SpaceX/Seattle (US) in LEO that was launched on Fri, 05 Apr 2024 UTC via an FALCON 9 launch vehicle from the Air Force Eastern Test Range (AFETR). Payload-class satellites include a variety of spacecraft equipped with specific instruments for various scientific and technological missions. These include communications satellites like Starlink; space stations such as the ISS; scientific satellites like the Hubble; Earth observation satellites from companies like Planet Labs, Umbra, and HawkEye 360; GPS; miniature CubeSats for education and research; and military/defense satellites.

Loading next visibility...
Identifier
59415, 2024-064T
Orbit
LEO
Country
Flag of USUS
Related business
Manufacturer
SpaceX/Seattle
Mission
Operational Commercial Communications
Bus & Motor
STARLINK V2M, Unknown motor
Mass
730 kg wet, ~700 kg dry
Launch date (UTC)
2024-04-05 (2 years ago)
Launch vehicle
FALCON 9
Launch site
Air Force Eastern Test Range (AFETR)
Object type
Payload
Rocket body
Debris
Shape & HBR
Box + 2 Pan, 17.7 m
Radar Cross Section
33.884 m², Large (>1 m²)

Expand to show TLE details & history
Last TLE update: 3 days ago

TLE from 3 days ago
0 STARLINK-31398
1 59415U 24064T   26170.54131101  .00000803  00000-0  38693-4 0  9996
2 59415  43.0029 200.8830 0001332 275.0192  85.0508 15.27586907124801
Epoch: 2026-06-19T12:59Z
TLE epoch observation values (Epoch: 2026-06-19T12:59:29.271Z)
Latitude
0.00002°
Longitude
98.24225°
Altitude
482.725 km
Speed
7.626 km/s
True Right ascension
13h 23m 31s
True Declination
0° 00' 00"
Sunlit
Object was in daylight at epoch
Visualization orbit readout
Latitude
Unknown
Longitude
Unknown
Altitude
Unknown
Speed
Unknown
Apparent Right ascension
Unknown
Apparent Declination
Unknown
Sunlit
N/A
Visualization observer readout
Local Sidereal Time
21:24:03
Azimuth
Unknown
Elevation
Unknown
Doppler factor
Unknown
Orbital elements
Apogee altitude
485.887 km
Perigee altitude
484.059 km
Semi-major axis
6,863.11 km
Eccentricity
0.00013
Inclination
43.0029°
RAAN
200.883°
Arg. of periapsis
275.0192°
True anomaly
85.06601°
Mean anomaly
85.0508°
Eccentric anomaly
85.0584°
Mean motion
3.81735 °/min
Orbital period
94.31 mins
BSTAR
0.000038693
Loading maneuver chart data...
Computing Atmospheric mass density...
Loading historical data...
Loading historical data...
Loading historical data...
Loading historical data...
Loading historical data...
Loading historical data...
Loading historical data...

Documentation

Showing up to 5 results
|